• In Deutschland
  • Länderverzeichnis
  • Für 7 Tage
  • Wassertemperatur
  • Satellitenkarten
  • Wetterkarte
  • Widgets
  • user-avatar
    Anmelden

    Stündliche Wetter Harper

    Heute, 24 November, Freitag

    Zeit Temperatur Niederschläge Wind Luftdruck Luftfeuchtigkeit
    00:00 +26°C° 0,8 mm 2 m/S 759 mmHg 92%
    01:00 +26°C° 0,8 mm 1 m/S 759 mmHg 92%
    02:00 +26°C° 0,8 mm 1 m/S 758 mmHg 93%
    03:00 +26°C° 0 mm 1 m/S 758 mmHg 93%
    04:00 +26°C° 0 mm 1 m/S 758 mmHg 93%
    05:00 +25°C° 0 mm 1 m/S 759 mmHg 94%
    06:00 +27°C° 0 mm 1 m/S 759 mmHg 88%
    07:00 +28°C° 0 mm 1 m/S 759 mmHg 83%
    08:00 +29°C° 0 mm 1 m/S 759 mmHg 78%
    09:00 +31°C° 0 mm 1 m/S 759 mmHg 73%
    10:00 +32°C° 0 mm 2 m/S 759 mmHg 67%
    11:00 +34°C° 0 mm 2 m/S 759 mmHg 62%
    12:00 +33°C° 0,4 mm 3 m/S 758 mmHg 66%
    13:00 +31°C° 0,4 mm 3 m/S 758 mmHg 70%
    14:00 +30°C° 0,4 mm 3 m/S 757 mmHg 75%
    15:00 +30°C° 1,1 mm 3 m/S 757 mmHg 79%
    16:00 +29°C° 1,1 mm 3 m/S 758 mmHg 84%
    17:00 +28°C° 1,1 mm 3 m/S 758 mmHg 88%
    18:00 +27°C° 1,4 mm 2 m/S 758 mmHg 89%
    19:00 +27°C° 1,4 mm 2 m/S 759 mmHg 90%
    20:00 +27°C° 1,4 mm 2 m/S 759 mmHg 91%
    21:00 +27°C° 0,2 mm 2 m/S 759 mmHg 91%
    22:00 +27°C° 0,2 mm 2 m/S 759 mmHg 91%
    23:00 +26°C° 0,2 mm 2 m/S 760 mmHg 91%

    Morgen, 25 November, Samstag

    Zeit Temperatur Niederschläge Wind Luftdruck Luftfeuchtigkeit
    00:00 +26°C° 0,9 mm 2 m/S 759 mmHg 92%
    01:00 +26°C° 0,9 mm 2 m/S 759 mmHg 92%
    02:00 +26°C° 0,9 mm 2 m/S 758 mmHg 93%
    03:00 +26°C° 0,9 mm 2 m/S 758 mmHg 92%
    04:00 +26°C° 0,9 mm 2 m/S 759 mmHg 92%
    05:00 +26°C° 0,9 mm 2 m/S 759 mmHg 92%
    06:00 +27°C° 0,3 mm 2 m/S 759 mmHg 88%
    07:00 +28°C° 0,3 mm 2 m/S 760 mmHg 83%
    08:00 +29°C° 0,3 mm 2 m/S 760 mmHg 79%
    09:00 +30°C° 0 mm 2 m/S 760 mmHg 74%
    10:00 +31°C° 0 mm 2 m/S 760 mmHg 68%
    11:00 +32°C° 0 mm 2 m/S 759 mmHg 62%
    12:00 +32°C° 0,1 mm 2 m/S 759 mmHg 64%
    13:00 +33°C° 0,1 mm 3 m/S 758 mmHg 65%
    14:00 +33°C° 0,1 mm 3 m/S 757 mmHg 66%
    15:00 +31°C° 0,1 mm 3 m/S 757 mmHg 71%
    16:00 +30°C° 0,1 mm 3 m/S 757 mmHg 76%
    17:00 +29°C° 0,1 mm 3 m/S 757 mmHg 81%
    18:00 +28°C° 0 mm 2 m/S 758 mmHg 83%
    19:00 +28°C° 0 mm 2 m/S 759 mmHg 85%
    20:00 +27°C° 0 mm 2 m/S 760 mmHg 87%
    21:00 +27°C° 0 mm 2 m/S 760 mmHg 88%
    22:00 +27°C° 0 mm 1 m/S 760 mmHg 89%
    23:00 +27°C° 0 mm 1 m/S 760 mmHg 89%

    übermorgen, 26 November, Sonntag

    Zeit Temperatur Niederschläge Wind Luftdruck Luftfeuchtigkeit
    00:00 +27°C° 0 mm 1 m/S 759 mmHg 90%
    01:00 +26°C° 0 mm 1 m/S 758 mmHg 91%
    02:00 +26°C° 0 mm 1 m/S 758 mmHg 92%
    03:00 +26°C° 0 mm 1 m/S 758 mmHg 92%
    04:00 +26°C° 0 mm 1 m/S 758 mmHg 92%
    05:00 +26°C° 0 mm 1 m/S 759 mmHg 92%
    06:00 +27°C° 0 mm 1 m/S 759 mmHg 86%
    07:00 +29°C° 0 mm 1 m/S 760 mmHg 80%
    08:00 +30°C° 0 mm 2 m/S 760 mmHg 75%
    09:00 +31°C° 0 mm 2 m/S 760 mmHg 71%
    10:00 +31°C° 0 mm 2 m/S 760 mmHg 68%
    11:00 +32°C° 0 mm 2 m/S 759 mmHg 65%
    12:00 +32°C° 0,1 mm 2 m/S 759 mmHg 66%
    13:00 +33°C° 0,1 mm 3 m/S 758 mmHg 68%
    14:00 +31°C° 0,1 mm 3 m/S 757 mmHg 69%
    15:00 +30°C° 0,4 mm 3 m/S 758 mmHg 74%
    16:00 +29°C° 0,4 mm 2 m/S 758 mmHg 79%
    17:00 +28°C° 0,4 mm 2 m/S 758 mmHg 84%
    18:00 +28°C° 0 mm 2 m/S 759 mmHg 85%
    19:00 +28°C° 0 mm 2 m/S 759 mmHg 87%
    20:00 +27°C° 0 mm 2 m/S 760 mmHg 89%
    21:00 +27°C° 0 mm 2 m/S 760 mmHg 89%
    22:00 +27°C° 0 mm 2 m/S 760 mmHg 90%
    23:00 +27°C° 0 mm 2 m/S 760 mmHg 91%

    27 November, Montag

    Zeit Temperatur Niederschläge Wind Luftdruck Luftfeuchtigkeit
    00:00 +27°C° 0,1 mm 2 m/S 759 mmHg 91%
    01:00 +26°C° 0,1 mm 2 m/S 759 mmHg 92%
    02:00 +26°C° 0,1 mm 2 m/S 758 mmHg 92%
    03:00 +26°C° 0 mm 2 m/S 758 mmHg 93%
    04:00 +26°C° 0 mm 3 m/S 759 mmHg 93%
    05:00 +26°C° 0 mm 3 m/S 759 mmHg 93%
    06:00 +27°C° 0,1 mm 3 m/S 759 mmHg 88%
    07:00 +28°C° 0,1 mm 3 m/S 760 mmHg 84%
    08:00 +29°C° 0,1 mm 3 m/S 760 mmHg 80%
    09:00 +30°C° 0,1 mm 3 m/S 760 mmHg 76%
    10:00 +31°C° 0,1 mm 3 m/S 760 mmHg 72%
    11:00 +31°C° 0,1 mm 3 m/S 759 mmHg 69%
    12:00 +31°C° 0,7 mm 3 m/S 759 mmHg 72%
    13:00 +31°C° 0,7 mm 3 m/S 758 mmHg 74%
    14:00 +30°C° 0,7 mm 3 m/S 758 mmHg 77%
    15:00 +29°C° 0,3 mm 3 m/S 758 mmHg 80%
    16:00 +29°C° 0,3 mm 2 m/S 758 mmHg 83%
    17:00 +28°C° 0,3 mm 2 m/S 758 mmHg 86%
    18:00 +27°C° 0,4 mm 2 m/S 759 mmHg 88%
    19:00 +27°C° 0,4 mm 2 m/S 760 mmHg 90%
    20:00 +26°C° 0,4 mm 1 m/S 760 mmHg 91%
    21:00 +26°C° 0,2 mm 1 m/S 760 mmHg 91%
    22:00 +26°C° 0,2 mm 2 m/S 760 mmHg 91%
    23:00 +26°C° 0,2 mm 2 m/S 760 mmHg 92%

    28 November, Dienstag

    Zeit Temperatur Niederschläge Wind Luftdruck Luftfeuchtigkeit
    00:00 +26°C° 1,3 mm 2 m/S 759 mmHg 92%
    01:00 +26°C° 1,3 mm 2 m/S 759 mmHg 91%
    02:00 +26°C° 1,3 mm 2 m/S 758 mmHg 91%
    03:00 +26°C° 0,3 mm 2 m/S 758 mmHg 91%
    04:00 +25°C° 0,3 mm 1 m/S 759 mmHg 91%
    05:00 +25°C° 0,3 mm 1 m/S 759 mmHg 91%
    06:00 +27°C° 0 mm 1 m/S 759 mmHg 86%
    07:00 +28°C° 0 mm 2 m/S 760 mmHg 81%
    08:00 +29°C° 0 mm 2 m/S 760 mmHg 76%
    09:00 +30°C° 0 mm 2 m/S 760 mmHg 70%
    10:00 +32°C° 0 mm 2 m/S 760 mmHg 65%
    11:00 +34°C° 0 mm 2 m/S 759 mmHg 59%
    12:00 +32°C° 0,1 mm 2 m/S 759 mmHg 61%
    13:00 +32°C° 0,1 mm 2 m/S 758 mmHg 64%
    14:00 +31°C° 0,1 mm 3 m/S 757 mmHg 66%
    15:00 +30°C° 0,1 mm 2 m/S 757 mmHg 70%
    16:00 +30°C° 0,1 mm 2 m/S 758 mmHg 74%
    17:00 +29°C° 0,1 mm 2 m/S 758 mmHg 78%
    18:00 +28°C° 0 mm 2 m/S 758 mmHg 80%
    19:00 +28°C° 0 mm 2 m/S 759 mmHg 82%
    20:00 +27°C° 0 mm 2 m/S 759 mmHg 84%
    21:00 +27°C° 0 mm 2 m/S 759 mmHg 85%
    22:00 +27°C° 0 mm 2 m/S 759 mmHg 86%
    23:00 +26°C° 0 mm 1 m/S 759 mmHg 87%

    29 November, Mittwoch

    Zeit Temperatur Niederschläge Wind Luftdruck Luftfeuchtigkeit
    00:00 +26°C° 0 mm 1 m/S 758 mmHg 88%
    01:00 +26°C° 0 mm 1 m/S 758 mmHg 89%
    02:00 +26°C° 0 mm 1 m/S 758 mmHg 90%
    03:00 +26°C° 0 mm 1 m/S 758 mmHg 91%
    04:00 +26°C° 0 mm 1 m/S 758 mmHg 91%
    05:00 +25°C° 0 mm 1 m/S 758 mmHg 92%
    06:00 +27°C° 0 mm 1 m/S 759 mmHg 86%
    07:00 +28°C° 0 mm 2 m/S 759 mmHg 80%
    08:00 +29°C° 0 mm 2 m/S 760 mmHg 74%
    09:00 +29°C° 0 mm 2 m/S 759 mmHg 73%
    10:00 +29°C° 0 mm 2 m/S 759 mmHg 73%
    11:00 +30°C° 0 mm 2 m/S 759 mmHg 72%
    12:00 +30°C° 0,1 mm 2 m/S 758 mmHg 71%
    13:00 +30°C° 0,1 mm 2 m/S 758 mmHg 69%
    14:00 +31°C° 0,1 mm 2 m/S 757 mmHg 67%
    15:00 +30°C° 0 mm 2 m/S 757 mmHg 71%
    16:00 +29°C° 0 mm 2 m/S 758 mmHg 76%
    17:00 +28°C° 0 mm 2 m/S 758 mmHg 80%
    18:00 +28°C° 0 mm 2 m/S 758 mmHg 83%
    19:00 +27°C° 0 mm 2 m/S 759 mmHg 85%
    20:00 +26°C° 0 mm 2 m/S 759 mmHg 88%
    21:00 +26°C° 0 mm 2 m/S 759 mmHg 89%
    22:00 +26°C° 0 mm 2 m/S 759 mmHg 90%
    23:00 +26°C° 0 mm 2 m/S 759 mmHg 90%
    Mehr zeigen